This is the latest recevied weather packets stored in our database for station/object HK6RM-16. If no packets are shown the sender has not sent any weather packets the latest 10 day(s).
| Time | Temp. | Humidity | Pressure | Rain* | Wind** | Luminosity | Snow |
|---|---|---|---|---|---|---|---|
| 1777659353 | 17.78° C | 75% | 1012 hPa | 0 mm | - | - | - |
| 1777658393 | 17.78° C | 72% | 1012 hPa | 0 mm | - | - | - |
| 1777657432 | 18.33° C | 72% | 1012 hPa | 0 mm | - | - | - |
| 1777656471 | 18.33° C | 72% | 1013 hPa | 0 mm | - | - | - |
| 1777655510 | 18.89° C | 72% | 1013 hPa | 0 mm | - | - | - |
| 1777654548 | 18.89° C | 72% | 1013 hPa | 0 mm | - | - | - |
| 1777653587 | 18.89° C | 72% | 1013 hPa | 0 mm | - | - | - |
| 1777652627 | 18.89° C | 73% | 1013 hPa | 0 mm | - | - | - |
| 1777651666 | 18.89° C | 73% | 1013 hPa | 0 mm | - | - | - |
| 1777650706 | 19.44° C | 73% | 1013 hPa | 0 mm | - | - | - |
| 1777649745 | 17.78° C | 68% | 1013 hPa | 0 mm | - | - | - |
| 1777648784 | 18.33° C | 68% | 1014 hPa | 0 mm | - | - | - |
| 1777647823 | 18.89° C | 67% | 1014 hPa | 0 mm | - | - | - |
| 1777646863 | 19.44° C | 67% | 1014 hPa | 0 mm | - | - | - |
| 1777645902 | 16.67° C | 63% | 1014 hPa | 0 mm | - | - | - |
| 1777644940 | 17.22° C | 63% | 1015 hPa | 0 mm | - | - | - |
| 1777643979 | 17.78° C | 63% | 1015 hPa | 0 mm | - | - | - |
| 1777643019 | 13.89° C | 77% | 1015 hPa | 0 mm | - | - | - |
| 1777642057 | 14.44° C | 77% | 1015 hPa | 0 mm | - | - | - |
| 1777641095 | 14.44° C | 77% | 1015 hPa | 0 mm | - | - | - |
| 1777640134 | 15° C | 77% | 1015 hPa | 0 mm | - | - | - |
| 1777639173 | 12.78° C | 78% | 1015 hPa | 0 mm | - | - | - |
| 1777638211 | 12.78° C | 78% | 1015 hPa | 0 mm | - | - | - |
| 1777637251 | 13.33° C | 78% | 1015 hPa | 0 mm | - | - | - |
| 1777636290 | 13.89° C | 78% | 1015 hPa | 0 mm | - | - | - |
* Rain latest hour (hover to see other rain measurements)
** Current wind speed in m/s (hover to see current wind gust speed)